{"data":{"norad_id":64173,"epoch":"2026-09-19T18:02:53.035008Z","epoch_age_seconds":205002,"freshness":"STALE","line1":"1 64173U 25113D   26262.75200272  .00011539  00000+0  38285-3 0  9993","line2":"2 64173  53.1601 267.8395 0000686  63.4473 296.6599 15.31715537 74764","mean_motion":15.31715537,"eccentricity":6.86e-5,"inclination_deg":53.1601,"raan_deg":267.8395,"arg_perigee_deg":63.4473,"mean_anomaly_deg":296.6599,"bstar":0.00038285,"rev_number":7476,"period_min":94.01223433565,"perigee_km":470.22385084393,"apogee_km":471.16351041332,"semimajor_km":6848.8306806286,"source":"CELESTRAK","updated_at":"2026-09-21T09:00:35.243224Z"}}